• Em Portugal
  • Lista de países
  • Para 7 dias
  • Temperatura da água
  • Mapas de satélite
  • Mapa do tempo
  • Widgets de tempo
  • user-avatar
    Iniciar Sessão

    Previsão horária em Sherpur

    Hoje, 25 Novembro, Sábado

    Tempo Temperatura Precipitação Vento Pressão Humidade
    00:00 +4°C° 0 mm 1 m/s 607 mmHg 55%
    01:00 +4°C° 0 mm 1 m/s 607 mmHg 56%
    02:00 +4°C° 0 mm 1 m/s 606 mmHg 57%
    03:00 +4°C° 0 mm 1 m/s 606 mmHg 58%
    04:00 +4°C° 0 mm 1 m/s 606 mmHg 59%
    05:00 +3°C° 0 mm 1 m/s 606 mmHg 57%
    06:00 +4°C° 0 mm 1 m/s 606 mmHg 56%
    07:00 +4°C° 0 mm 1 m/s 606 mmHg 54%
    08:00 +4°C° 0 mm 1 m/s 607 mmHg 53%
    09:00 +5°C° 0 mm 2 m/s 607 mmHg 47%
    10:00 +7°C° 0 mm 2 m/s 608 mmHg 41%
    11:00 +8°C° 0 mm 2 m/s 608 mmHg 36%
    12:00 +9°C° 0 mm 2 m/s 608 mmHg 35%
    13:00 +9°C° 0 mm 2 m/s 608 mmHg 34%
    14:00 +10°C° 0 mm 2 m/s 608 mmHg 33%
    15:00 +9°C° 0 mm 2 m/s 608 mmHg 35%
    16:00 +8°C° 0 mm 2 m/s 608 mmHg 37%
    17:00 +9°C° 0 mm 1 m/s 608 mmHg 39%
    18:00 +8°C° 0 mm 1 m/s 608 mmHg 41%
    19:00 +7°C° 0 mm 1 m/s 608 mmHg 44%
    20:00 +6°C° 0 mm 1 m/s 608 mmHg 46%
    21:00 +6°C° 0 mm 1 m/s 608 mmHg 48%
    22:00 +5°C° 0 mm 1 m/s 608 mmHg 49%
    23:00 +5°C° 0 mm 1 m/s 608 mmHg 51%

    Amanhã, 26 Novembro, Domingo

    Tempo Temperatura Precipitação Vento Pressão Humidade
    00:00 +5°C° 0 mm 1 m/s 608 mmHg 52%
    01:00 +4°C° 0 mm 1 m/s 608 mmHg 54%
    02:00 +4°C° 0 mm 1 m/s 608 mmHg 55%
    03:00 +4°C° 0 mm 1 m/s 608 mmHg 56%
    04:00 +4°C° 0 mm 1 m/s 608 mmHg 57%
    05:00 +3°C° 0 mm 1 m/s 608 mmHg 58%
    06:00 +4°C° 0 mm 1 m/s 608 mmHg 57%
    07:00 +4°C° 0 mm 1 m/s 609 mmHg 55%
    08:00 +4°C° 0 mm 1 m/s 609 mmHg 53%
    09:00 +6°C° 0 mm 1 m/s 610 mmHg 46%
    10:00 +8°C° 0 mm 1 m/s 611 mmHg 39%
    11:00 +10°C° 0 mm 1 m/s 612 mmHg 32%
    12:00 +10°C° 0 mm 1 m/s 612 mmHg 30%
    13:00 +11°C° 0 mm 1 m/s 612 mmHg 27%
    14:00 +12°C° 0 mm 2 m/s 611 mmHg 24%
    15:00 +11°C° 0 mm 1 m/s 611 mmHg 26%
    16:00 +10°C° 0 mm 1 m/s 611 mmHg 28%
    17:00 +9°C° 0 mm 1 m/s 610 mmHg 30%
    18:00 +7°C° 0 mm 2 m/s 611 mmHg 32%
    19:00 +7°C° 0 mm 2 m/s 611 mmHg 34%
    20:00 +6°C° 0 mm 2 m/s 611 mmHg 37%
    21:00 +5°C° 0 mm 2 m/s 610 mmHg 38%
    22:00 +5°C° 0 mm 2 m/s 610 mmHg 38%
    23:00 +5°C° 0 mm 2 m/s 610 mmHg 39%

    Depois de amanhã, 27 Novembro, Segunda-feira

    Tempo Temperatura Precipitação Vento Pressão Humidade
    00:00 +4°C° 0 mm 2 m/s 610 mmHg 39%
    01:00 +4°C° 0 mm 2 m/s 609 mmHg 39%
    02:00 +4°C° 0 mm 2 m/s 609 mmHg 38%
    03:00 +4°C° 0 mm 2 m/s 609 mmHg 37%
    04:00 +4°C° 0 mm 2 m/s 608 mmHg 36%
    05:00 +3°C° 0 mm 2 m/s 608 mmHg 35%
    06:00 +4°C° 0 mm 2 m/s 608 mmHg 33%
    07:00 +4°C° 0 mm 2 m/s 608 mmHg 31%
    08:00 +4°C° 0 mm 2 m/s 609 mmHg 29%
    09:00 +6°C° 0 mm 2 m/s 609 mmHg 25%
    10:00 +8°C° 0 mm 2 m/s 610 mmHg 21%
    11:00 +12°C° 0 mm 2 m/s 611 mmHg 18%
    12:00 +12°C° 0 mm 2 m/s 610 mmHg 17%
    13:00 +13°C° 0 mm 2 m/s 610 mmHg 16%
    14:00 +13°C° 0 mm 2 m/s 610 mmHg 15%
    15:00 +12°C° 0 mm 2 m/s 609 mmHg 18%
    16:00 +11°C° 0 mm 1 m/s 609 mmHg 20%
    17:00 +10°C° 0 mm 1 m/s 608 mmHg 22%
    18:00 +8°C° 0 mm 2 m/s 608 mmHg 23%
    19:00 +8°C° 0 mm 2 m/s 608 mmHg 25%
    20:00 +7°C° 0 mm 2 m/s 608 mmHg 26%
    21:00 +6°C° 0 mm 2 m/s 608 mmHg 27%
    22:00 +6°C° 0 mm 2 m/s 608 mmHg 27%
    23:00 +6°C° 0 mm 2 m/s 608 mmHg 28%

    28 Novembro, Terça-feira

    Tempo Temperatura Precipitação Vento Pressão Humidade
    00:00 +5°C° 0 mm 2 m/s 607 mmHg 29%
    01:00 +5°C° 0 mm 2 m/s 607 mmHg 30%
    02:00 +5°C° 0 mm 2 m/s 607 mmHg 30%
    03:00 +4°C° 0 mm 2 m/s 606 mmHg 31%
    04:00 +4°C° 0 mm 2 m/s 606 mmHg 32%
    05:00 +4°C° 0 mm 2 m/s 606 mmHg 32%
    06:00 +5°C° 0 mm 1 m/s 606 mmHg 32%
    07:00 +5°C° 0 mm 1 m/s 606 mmHg 31%
    08:00 +6°C° 0 mm 1 m/s 606 mmHg 31%
    09:00 +7°C° 0 mm 1 m/s 607 mmHg 28%
    10:00 +9°C° 0 mm 1 m/s 608 mmHg 24%
    11:00 +11°C° 0 mm 1 m/s 609 mmHg 21%
    12:00 +12°C° 0 mm 1 m/s 609 mmHg 22%
    13:00 +12°C° 0 mm 1 m/s 609 mmHg 23%
    14:00 +12°C° 0 mm 2 m/s 608 mmHg 24%
    15:00 +10°C° 0 mm 2 m/s 608 mmHg 27%
    16:00 +10°C° 0 mm 2 m/s 608 mmHg 29%
    17:00 +9°C° 0 mm 2 m/s 608 mmHg 32%
    18:00 +8°C° 0 mm 2 m/s 608 mmHg 35%
    19:00 +7°C° 0 mm 2 m/s 608 mmHg 39%
    20:00 +7°C° 0 mm 1 m/s 608 mmHg 42%
    21:00 +7°C° 0 mm 1 m/s 608 mmHg 44%
    22:00 +6°C° 0 mm 1 m/s 608 mmHg 46%
    23:00 +6°C° 0 mm 1 m/s 607 mmHg 48%

    29 Novembro, Quarta-feira

    Tempo Temperatura Precipitação Vento Pressão Humidade
    00:00 +5°C° 0 mm 1 m/s 607 mmHg 49%
    01:00 +5°C° 0 mm 1 m/s 607 mmHg 50%
    02:00 +5°C° 0 mm 1 m/s 607 mmHg 51%
    03:00 +4°C° 0 mm 1 m/s 607 mmHg 53%
    04:00 +4°C° 0 mm 1 m/s 607 mmHg 54%
    05:00 +4°C° 0 mm 1 m/s 607 mmHg 55%
    06:00 +4°C° 0 mm 1 m/s 607 mmHg 54%
    07:00 +4°C° 0 mm 1 m/s 607 mmHg 52%
    08:00 +4°C° 0 mm 1 m/s 608 mmHg 51%
    09:00 +6°C° 0 mm 1 m/s 609 mmHg 46%
    10:00 +8°C° 0 mm 1 m/s 609 mmHg 41%
    11:00 +10°C° 0 mm 1 m/s 610 mmHg 36%
    12:00 +10°C° 0 mm 1 m/s 610 mmHg 34%
    13:00 +10°C° 0 mm 1 m/s 609 mmHg 32%
    14:00 +11°C° 0 mm 1 m/s 609 mmHg 30%
    15:00 +10°C° 0 mm 1 m/s 609 mmHg 31%
    16:00 +9°C° 0 mm 1 m/s 609 mmHg 33%
    17:00 +9°C° 0 mm 1 m/s 609 mmHg 35%
    18:00 +8°C° 0 mm 1 m/s 609 mmHg 36%
    19:00 +7°C° 0 mm 1 m/s 608 mmHg 38%
    20:00 +6°C° 0 mm 1 m/s 608 mmHg 39%
    21:00 +5°C° 0 mm 1 m/s 608 mmHg 40%
    22:00 +5°C° 0 mm 1 m/s 608 mmHg 40%
    23:00 +5°C° 0 mm 1 m/s 608 mmHg 40%

    30 Novembro, Quinta-feira

    Tempo Temperatura Precipitação Vento Pressão Humidade
    00:00 +5°C° 0 mm 1 m/s 608 mmHg 41%
    01:00 +4°C° 0 mm 1 m/s 608 mmHg 41%
    02:00 +4°C° 0 mm 1 m/s 607 mmHg 42%
    03:00 +4°C° 0 mm 1 m/s 607 mmHg 43%
    04:00 +4°C° 0 mm 1 m/s 607 mmHg 44%
    05:00 +2°C° 0 mm 2 m/s 607 mmHg 45%
    06:00 +3°C° 0 mm 2 m/s 607 mmHg 44%
    07:00 +3°C° 0 mm 2 m/s 608 mmHg 44%
    08:00 +3°C° 0 mm 2 m/s 608 mmHg 43%
    09:00 +6°C° 0 mm 1 m/s 609 mmHg 38%
    10:00 +8°C° 0 mm 1 m/s 609 mmHg 34%
    11:00 +10°C° 0 mm 1 m/s 610 mmHg 29%
    12:00 +10°C° 0 mm 1 m/s 609 mmHg 27%
    13:00 +11°C° 0 mm 1 m/s 609 mmHg 26%
    14:00 +11°C° 0 mm 1 m/s 609 mmHg 24%
    15:00 +10°C° 0 mm 1 m/s 609 mmHg 26%
    16:00 +9°C° 0 mm 1 m/s 608 mmHg 28%
    17:00 +8°C° 0 mm 1 m/s 608 mmHg 29%
    18:00 +8°C° 0 mm 1 m/s 608 mmHg 31%
    19:00 +7°C° 0 mm 1 m/s 608 mmHg 32%
    20:00 +5°C° 0 mm 0 m/s 608 mmHg 33%
    21:00 +5°C° 0 mm 1 m/s 607 mmHg 33%
    22:00 +5°C° 0 mm 1 m/s 607 mmHg 34%
    23:00 +4°C° 0 mm 1 m/s 607 mmHg 34%
    Mostrar mais